Wind_Speed
22 25 28 30 31 33 35 37 37 38 40 41 41 40 40 43 44 43 42 41 39 36 33 32 29 28 28 28 27 27 25 24 23 22 21 21 20 20 19 19 19 19 19 20
20 23 25 27 29 31 33 35 37 38 40 41 41 41 42 44 46 46 46 45 43 40 37 35 33 31 30 29 28 28 28 26 25 24 23 22 22 21 21 20 20 20 20 20
19 21 24 26 29 31 33 35 36 38 39 39 40 40 41 44 46 47 47 46 45 43 40 38 36 34 33 32 31 30 31 30 28 27 26 25 25 24 23 22 21 21 21 21
20 22 25 27 30 31 33 33 34 35 35 36 37 39 38 40 42 45 46 45 45 43 41 39 37 36 36 35 34 34 34 34 33 32 30 29 27 26 24 23 23 22 23 23
23 26 29 31 33 35 37 36 36 36 36 37 36 38 37 36 37 39 42 43 43 42 40 38 37 37 38 39 39 39 38 38 37 35 34 31 28 26 25 24 24 24 24 24
30 33 35 37 39 40 41 41 41 40 40 39 36 36 37 35 35 34 35 37 38 39 38 37 37 37 39 41 43 43 42 42 40 37 34 30 27 25 23 23 23 23 23 23
36 40 42 44 45 45 45 45 45 45 43 41 37 36 36 33 31 30 29 30 32 35 36 37 38 38 39 41 44 44 46 45 43 41 35 29 25 22 21 22 22 23 23 23
42 45 48 49 49 48 46 45 44 43 42 39 36 34 33 30 28 26 26 26 28 31 33 36 37 38 38 39 43 44 46 47 45 39 31 26 21 18 19 20 21 22 23 24
46 47 48 47 46 45 43 41 39 37 36 33 30 29 28 26 25 24 24 25 26 28 30 33 34 35 36 37 39 40 42 45 41 34 27 21 18 17 17 19 20 23 24 26
42 39 38 37 35 33 30 26 23 23 22 21 21 21 21 20 20 20 20 21 23 25 27 29 29 30 32 34 36 37 36 36 33 27 21 17 16 16 18 20 22 23 26 28
34 31 28 25 21 18 14 12 11 11 13 13 14 13 12 12 13 14 15 15 16 18 22 23 24 23 23 22 22 23 21 19 17 15 14 13 14 16 19 21 23 25 27 28
29 25 24 21 18 15 12 8 4 0 3 6 7 7 4 4 4 5 6 7 9 11 12 12 13 13 10 6 9 11 10 9 9 9 10 11 14 17 19 22 24 25 26 26
28 26 23 21 20 19 17 13 9 8 6 4 4 3 2 0 1 2 1 2 1 3 4 3 3 2 4 7 9 9 6 4 5 8 10 13 16 19 21 22 23 23 23 22
30 28 27 25 24 21 20 16 14 12 10 8 6 5 4 2 2 2 3 4 5 4 4 4 4 5 6 6 6 5 3 5 8 11 13 15 17 19 20 20 20 19 19 19
30 29 28 26 25 23 22 19 16 14 13 10 8 8 7 6 5 5 5 5 6 6 6 6 4 4 4 4 3 3 6 8 11 13 15 16 18 18 17 17 16 15 17 18
29 28 27 26 25 24 22 20 17 14 13 12 11 10 9 8 6 6 6 6 5 5 5 4 2 1 2 3 4 6 8 11 13 14 15 16 17 16 16 16 17 17 18 19
27 27 26 25 23 23 22 20 17 15 14 14 13 13 12 10 9 8 7 5 5 4 3 1 1 2 4 5 7 8 10 11 12 13 14 15 15 16 17 18 18 19 20 20
25 26 25 24 22 22 22 20 18 16 16 16 15 15 14 12 10 10 9 9 8 7 6 4 3 3 4 6 7 8 8 10 11 12 13 15 17 18 19 19 20 20 21 21
23 23 23 22 21 20 20 19 17 16 15 15 15 15 14 14 13 13 12 12 11 10 9 7 6 6 6 6 7 8 9 10 12 13 15 17 18 19 20 20 20 21 21 22
22 21 20 20 19 17 17 17 16 15 14 13 13 13 13 14 14 13 13 13 12 11 10 9 8 7 7 7 8 9 10 12 13 15 16 18 19 20 21 21 22 22 22 22
23 21 19 18 16 15 14 14 14 13 13 12 12 12 13 13 13 12 12 12 11 10 10 9 9 9 9 9 10 10 12 13 14 16 17 19 20 20 21 22 22 22 21 21
27 23 21 18 15 14 13 11 12 11 10 11 11 11 11 11 11 11 11 11 11 11 10 10 11 11 11 12 12 13 14 15 16 17 18 19 20 20 20 20 20 19 19 19
30 28 24 20 16 14 12 10 9 8 7 8 9 9 9 9 9 9 10 11 11 12 12 13 13 13 14 15 16 17 17 17 17 17 18 18 18 18 17 17 17 16 16 16
31 32 29 23 18 15 12 9 8 7 5 5 6 6 6 6 7 8 9 10 12 13 14 14 14 15 15 16 17 18 18 18 17 17 17 17 16 16 16 15 15 14 14 15
30 33 32 28 23 17 13 9 7 5 4 3 4 4 5 6 6 7 9 10 11 13 14 14 15 15 16 16 17 17 17 17 17 17 17 16 16 16 15 14 14 14 14 14
27 31 32 30 27 22 16 10 6 5 4 3 4 4 5 5 6 7 8 9 11 12 13 14 15 15 16 16 16 16 16 17 17 18 18 17 17 16 16 16 15 15 15 15
Wind_Direction
253 256 257 259 261 263 264 266 266 267 267 267 267 268 267 266 267 266 265 264 265 266 266 265 265 266 268 271 271 272 271 271 270 268 266 262 260 260 261 262 264 266 267 265
257 258 262 264 265 266 266 267 267 267 268 268 267 266 265 264 264 264 264 263 263 263 263 262 262 262 264 265 265 267 267 267 264 261 259 258 258 259 259 259 260 262 261 260
265 267 268 268 268 268 268 269 269 269 269 270 269 267 266 265 265 264 263 262 261 260 260 259 259 259 259 260 261 262 263 263 259 256 252 251 252 254 256 258 260 261 260 259
276 275 273 271 270 269 268 270 271 271 272 273 273 272 268 268 268 267 265 263 261 260 258 257 257 256 255 256 257 256 256 257 254 251 244 243 246 249 253 256 259 261 262 264
283 281 277 275 274 272 271 271 272 273 275 276 278 278 275 274 272 269 266 263 260 258 256 254 254 254 251 251 252 250 250 252 250 245 240 237 238 243 247 252 258 261 265 268
287 284 282 281 279 279 278 277 276 276 276 279 281 283 281 280 277 273 267 262 257 255 252 250 251 252 250 249 249 247 246 248 244 239 235 233 232 236 243 251 257 262 268 273
292 291 289 287 286 285 285 284 284 282 281 283 283 283 282 281 277 272 266 260 254 249 247 247 247 250 251 249 247 244 244 245 238 235 234 232 231 235 243 250 258 265 271 277
300 297 294 291 289 287 286 285 285 284 283 283 281 280 281 278 274 270 264 258 252 247 243 245 247 249 250 248 247 243 242 241 237 233 228 227 229 237 247 254 262 271 278 283
307 304 299 297 295 292 289 286 282 280 278 276 273 272 271 272 267 266 263 259 254 246 243 244 247 248 248 248 246 244 240 238 234 234 233 234 238 244 255 265 274 281 285 287
318 316 312 309 306 302 298 292 283 274 269 264 260 259 263 266 266 267 267 261 258 248 243 244 248 250 248 248 247 245 242 238 236 234 232 235 244 257 268 277 283 287 289 291
336 337 336 334 331 325 318 309 288 266 252 247 244 244 250 256 268 271 270 266 261 252 250 253 255 256 257 254 243 235 228 220 217 221 228 246 260 271 279 285 290 292 293 294
2 7 10 10 13 13 9 5 0 222 204 210 218 225 226 236 262 284 284 277 268 267 265 265 267 267 259 237 201 185 182 195 210 227 246 262 274 283 289 292 295 294 294 295
25 28 30 33 32 32 35 41 61 84 104 128 154 163 176 155 343 339 33 57 332 262 261 273 288 243 178 143 144 147 154 194 234 253 268 280 288 293 295 296 298 294 292 292
36 36 37 39 42 47 53 60 73 80 89 105 106 104 110 87 74 76 104 98 102 104 109 122 126 123 122 128 138 162 209 251 275 283 288 292 296 297 299 301 299 294 289 290
36 38 40 43 48 52 58 66 74 79 83 86 85 86 85 78 85 93 103 113 118 115 115 116 120 132 142 157 187 237 260 273 282 289 293 296 297 300 302 303 299 295 293 292
35 37 40 45 50 55 59 62 66 71 76 77 78 77 76 75 86 95 99 111 128 133 127 130 121 160 230 260 274 281 286 288 289 292 295 298 300 300 299 298 296 294 292 292
34 35 38 42 45 49 54 57 63 69 75 75 74 79 84 84 82 87 88 92 98 96 89 82 328 301 292 289 292 292 294 295 296 297 300 301 301 300 300 300 298 296 293 291
31 34 37 41 43 48 50 55 62 71 77 75 72 76 82 80 84 85 84 81 78 71 58 44 11 341 322 314 313 311 309 307 307 307 305 304 305 305 303 302 300 298 296 293
24 27 30 34 38 43 46 50 58 67 77 80 79 76 79 81 81 81 79 79 76 70 63 54 40 23 4 349 339 331 322 316 313 311 309 308 307 306 304 303 302 301 298 295
20 21 23 27 30 34 39 43 50 57 72 78 80 80 84 87 85 83 81 78 73 67 59 49 36 24 11 356 341 331 324 318 314 311 310 309 307 305 303 302 301 300 299 296
16 15 16 18 22 27 30 36 40 50 62 72 76 80 84 86 83 77 71 66 61 55 48 39 29 17 5 353 343 335 328 323 319 315 312 310 309 307 306 305 303 301 299 296
14 11 9 9 11 15 17 22 33 43 58 67 69 73 76 74 69 63 58 53 48 44 38 31 24 16 7 359 351 344 339 334 330 326 323 321 320 318 316 313 310 306 302 299
15 12 8 5 5 6 10 14 24 36 53 61 63 66 68 64 57 51 46 44 42 40 38 33 26 18 10 3 357 352 348 345 343 341 339 338 336 334 331 328 323 317 311 307
14 13 11 8 4 3 5 11 22 32 47 54 55 56 55 51 48 43 42 43 43 40 36 29 22 16 11 5 1 358 357 357 357 356 355 353 352 350 347 344 341 336 329 322
12 13 14 14 12 11 9 13 24 38 48 51 42 40 38 36 38 39 39 41 39 35 30 25 22 18 14 10 8 6 7 9 10 10 9 7 6 4 3 1 358 353 348 344
11 12 14 16 17 17 16 20 35 51 57 48 27 21 18 18 25 32 35 36 34 31 29 25 23 20 17 15 14 15 18 20 21 22 22 23 23 21 19 15 11 7 5 2
Height
5855 5856 5854 5853 5853 5852 5851 5850 5850 5850 5848 5849 5849 5851 5850 5847 5847 5848 5850 5852 5853 5856 5857 5858 5859 5859 5859 5859 5859 5859 5859 5859 5859 5859 5859 5859 5859 5859 5860 5860 5860 5859 5859 5859
5852 5850 5849 5847 5846 5844 5843 5842 5841 5840 5838 5838 5839 5841 5839 5837 5836 5837 5839 5841 5844 5847 5849 5850 5851 5852 5852 5853 5853 5853 5852 5852 5853 5853 5853 5853 5853 5853 5854 5854 5854 5854 5854 5854
5847 5846 5843 5841 5839 5837 5835 5833 5831 5830 5829 5828 5828 5830 5828 5827 5826 5826 5828 5830 5833 5836 5839 5842 5843 5844 5845 5846 5846 5847 5846 5845 5845 5845 5845 5845 5846 5846 5847 5847 5848 5848 5848 5848
5843 5840 5837 5834 5831 5828 5826 5824 5822 5820 5819 5818 5818 5817 5819 5817 5816 5816 5817 5819 5822 5825 5828 5831 5833 5835 5836 5838 5839 5840 5839 5838 5837 5836 5836 5836 5838 5839 5840 5841 5841 5842 5842 5842
5837 5834 5830 5827 5823 5819 5817 5814 5812 5811 5809 5808 5807 5806 5808 5808 5807 5806 5807 5809 5811 5815 5818 5821 5823 5825 5827 5828 5829 5831 5831 5830 5828 5827 5826 5828 5830 5833 5834 5835 5836 5836 5836 5836
5831 5826 5821 5817 5812 5808 5804 5802 5800 5799 5798 5798 5798 5796 5797 5798 5798 5797 5797 5798 5801 5804 5808 5811 5813 5815 5816 5817 5819 5821 5821 5821 5820 5819 5819 5820 5823 5826 5828 5829 5830 5830 5830 5830
5823 5816 5810 5804 5800 5796 5792 5789 5787 5785 5786 5788 5788 5787 5788 5789 5789 5789 5789 5790 5792 5794 5798 5801 5803 5804 5806 5807 5808 5809 5812 5812 5810 5810 5812 5815 5817 5819 5822 5823 5824 5824 5824 5824
5812 5805 5797 5790 5785 5782 5779 5776 5775 5774 5775 5776 5778 5778 5781 5781 5782 5782 5782 5783 5784 5786 5789 5791 5793 5794 5795 5796 5797 5799 5801 5802 5802 5804 5806 5808 5811 5813 5815 5817 5818 5818 5818 5818
5799 5791 5781 5774 5769 5766 5763 5762 5760 5761 5762 5765 5768 5771 5773 5774 5775 5776 5776 5777 5778 5779 5781 5784 5785 5786 5786 5787 5788 5789 5791 5793 5795 5798 5800 5803 5805 5807 5809 5810 5811 5811 5811 5811
5787 5778 5769 5762 5757 5752 5750 5749 5750 5751 5754 5757 5761 5764 5767 5768 5769 5771 5771 5772 5773 5774 5776 5778 5779 5779 5779 5780 5781 5783 5785 5787 5789 5793 5795 5798 5800 5802 5804 5804 5805 5805 5804 5803
5779 5771 5763 5755 5750 5746 5745 5743 5743 5745 5748 5752 5756 5761 5762 5764 5766 5767 5768 5768 5769 5770 5772 5773 5774 5775 5775 5775 5775 5777 5780 5783 5786 5789 5792 5795 5797 5799 5800 5800 5800 5799 5798 5797
5776 5768 5761 5755 5750 5746 5744 5742 5742 5744 5747 5750 5754 5761 5760 5762 5764 5765 5766 5767 5767 5768 5769 5770 5772 5772 5773 5773 5774 5776 5780 5783 5786 5789 5791 5793 5795 5796 5796 5795 5794 5793 5792 5791
5777 5771 5765 5760 5757 5752 5747 5745 5744 5746 5749 5751 5755 5760 5760 5762 5763 5765 5765 5766 5766 5768 5769 5770 5771 5772 5774 5775 5776 5778 5781 5784 5786 5788 5789 5791 5791 5791 5791 5790 5788 5787 5786 5785
5782 5775 5770 5766 5760 5755 5752 5750 5750 5751 5753 5754 5757 5759 5761 5762 5764 5765 5766 5766 5767 5768 5770 5771 5772 5774 5776 5777 5779 5780 5782 5784 5785 5786 5787 5788 5787 5787 5786 5784 5783 5781 5781 5780
5788 5782 5776 5771 5766 5762 5759 5758 5757 5757 5758 5759 5760 5761 5762 5763 5764 5765 5766 5767 5769 5769 5771 5772 5773 5775 5776 5778 5780 5781 5782 5783 5784 5784 5784 5784 5784 5783 5781 5780 5779 5777 5776 5775
5795 5789 5783 5778 5773 5770 5767 5765 5764 5763 5763 5763 5763 5764 5765 5765 5766 5767 5768 5769 5770 5771 5772 5773 5774 5776 5777 5778 5780 5781 5781 5781 5781 5781 5781 5780 5780 5779 5778 5776 5775 5773 5771 5770
5801 5796 5790 5785 5781 5777 5774 5771 5770 5768 5767 5767 5767 5768 5768 5768 5769 5769 5770 5771 5772 5773 5774 5775 5776 5777 5778 5778 5779 5779 5779 5779 5779 5778 5778 5777 5776 5775 5773 5772 5770 5768 5766 5765
5806 5801 5796 5792 5788 5784 5783 5778 5776 5774 5773 5772 5772 5771 5772 5772 5772 5773 5773 5773 5774 5775 5776 5777 5777 5777 5778 5778 5777 5777 5777 5777 5776 5775 5774 5773 5772 5770 5768 5766 5764 5762 5760 5758
5811 5806 5802 5797 5793 5790 5787 5784 5782 5780 5778 5778 5777 5777 5776 5776 5776 5776 5776 5777 5777 5778 5778 5779 5779 5779 5778 5778 5777 5777 5776 5775 5774 5773 5771 5770 5768 5766 5763 5761 5759 5757 5754 5752
5815 5810 5806 5802 5798 5795 5794 5790 5787 5786 5784 5783 5782 5781 5781 5780 5781 5781 5781 5780 5780 5781 5780 5780 5780 5779 5779 5778 5777 5776 5775 5773 5771 5770 5768 5765 5763 5761 5759 5756 5753 5751 5748 5746
5818 5813 5809 5806 5802 5799 5797 5794 5792 5791 5790 5787 5786 5786 5785 5785 5785 5785 5784 5784 5784 5783 5783 5782 5781 5780 5779 5778 5776 5775 5773 5770 5768 5766 5763 5761 5758 5756 5753 5750 5747 5744 5742 5740
5820 5815 5811 5807 5804 5804 5799 5797 5796 5795 5792 5791 5790 5790 5789 5789 5789 5788 5788 5787 5786 5785 5784 5783 5782 5780 5779 5777 5774 5772 5770 5767 5764 5762 5759 5756 5753 5750 5747 5744 5741 5738 5736 5734
5823 5818 5813 5809 5807 5803 5800 5799 5797 5796 5795 5794 5794 5793 5792 5792 5792 5791 5790 5789 5788 5787 5786 5784 5782 5780 5778 5775 5773 5770 5767 5764 5761 5758 5755 5752 5749 5746 5742 5739 5736 5734 5731 5729
5826 5820 5815 5809 5805 5803 5800 5799 5798 5797 5797 5797 5796 5796 5795 5795 5794 5793 5792 5791 5790 5789 5787 5785 5783 5781 5778 5775 5772 5769 5766 5763 5760 5757 5754 5751 5747 5744 5741 5737 5734 5731 5728 5725
5829 5823 5817 5812 5807 5803 5801 5799 5799 5798 5798 5799 5799 5798 5798 5797 5797 5796 5795 5793 5792 5791 5789 5787 5785 5782 5779 5776 5773 5770 5767 5764 5761 5757 5754 5751 5748 5744 5741 5737 5734 5730 5727 5723
5832 5827 5821 5816 5811 5806 5802 5800 5799 5799 5800 5800 5800 5800 5800 5799 5799 5798 5797 5795 5794 5793 5791 5789 5787 5784 5782 5778 5775 5772 5769 5766 5763 5759 5756 5753 5749 5746 5742 5738 5735 5731 5727 5723